星链-11542 (STARLINK-11542)

导读

STARLINK-11542是美国SpaceX公司星链(Starlink)项目的低轨互联网通信卫星,于2025年2月11日发射升空。该卫星部署在近地轨道,属于星链巨型星座组网的组成部分,旨在为全球提供高速宽带互联网服务。依托星链星座的规模优势,它将与其他卫星协同,补充覆盖全球偏远区域,满足海事、航空以及偏远地区用户的通信接入需求。

Basic Information
目录编号:
62988
目录名称:
STARLINK-11542
国际标识:
2025-031H
轨道中心:
EARTH
卫星名称:
星链-11542
卫星全名:
星链-11542 (STARLINK-11542)
卫星状态:
在轨 (已飞行571 天)
发射日期:
2025-02-11 UTC
国别 :
美国 (US)
星等 :
--
Orbit Information
数据来源 国际轨道数据
星历时间: 2026-09-04T23:57:44+0800
16小时前
查看轨道信息
半长轴: 6734.595km
偏心率: 0.0001906
轨道倾角: 43.000°
近地点辐角 266.587°
升交点赤经 2.380°
平近点角 93.478°
近地点: 355.174km
远地点: 357.742km
周期: 91.670分钟
每日圈数: 15.708531
Detailed Information
固有亮度:
5
最大亮度:
2.5
卫星平台:
Starlink V1.0
覆盖范围:
全球
运营商:
太空探索技术公司
运营商所在国:
美国
制造商(研发单位):
太空探索技术公司
制造商所在国:
美国
使用方式:
暂无
Satellite Introduction
Starlink 计划是 SpaceX 推出的全球卫星互联网项目,通过发射低轨道卫星,为全球尤其是偏远地区提供高速、低延迟的互联网服务。自 2019 年起,Starlink 已部署数千颗卫星,旨在缩小全球数字鸿沟,推动互联网普及。该项目还为军事、航空等行业提供通信支持,带来广泛经济效益。
2D Orbit Map
3D Orbit Map
Orbit Altitude Analysis Chart
Orbit Inclination Analysis Chart
Orbit Comprehensive Analysis Chart
View Comprehensive Chart
Conjunction Data List
Event ID Objects TCA Miss Dist (km) Collision Risk Probability Collision Risk Index (CRI) Action
CDM_260905-105405-062106-298821
2026-09-05T
10:54:39+0000
2.841 km
极远距离
1.356603E-6 低风险 0.38
CDM_260906-075506-283906-298821
2026-09-06T
07:55:31+0000
2.700 km
极远距离
8.190689E-7 极低风险 0.33